weather.gov     
National Weather Service

Regional Weather Roundup
NWS Homepage
This page is being discontinued on March 12, 2014.
The same data is available at this site. Please update your bookmarks.
Thank you, and we apologize for the inconvenience.
Please send an email to SR-SRH.Webmaster@noaa.gov with any concerns.


Current Version
Previous Version:    01  02  03  04  05  06  07  08  09  10  11  12  13  14  15  16  17  18  19  20  21  22  23  24  25  26  
[Printable]
428
ASUS42 KTBW 222110
RWRFL
FLORIDA REGIONAL WEATHER ROUNDUP
NATIONAL WEATHER SERVICE TAMPA BAY RUSKIN FL
400 PM EST SAT NOV 22 2014

NOTE: "FAIR" INDICATES FEW OR NO CLOUDS BELOW 12,000 FEET WITH NO
SIGNIFICANT WEATHER AND/OR OBSTRUCTIONS TO VISIBILITY.


FLZ001>010-012>015-112-114-115-222200-
PANHANDLE FLORIDA

CITY           SKY/WX    TMP DP  RH WIND       PRES   REMARKS
PENSACOLA      LGT RAIN  61  57  87 E8        30.12F
PENSACOLA NAS  CLOUDY    62  58  86 E14       30.11F
MILTON NAS     LGT RAIN  60  56  86 E10       30.14F
CRESTVIEW      LGT RAIN  60  58  92 E8        30.17F FOG
DUKE FIELD     DRIZZLE   61  59  94 E8        30.14F
VALPARAISO     LGT RAIN  61  59  94 E9        30.14F FOG
MARY ESTHER    DRIZZLE   61  56  86 E8        30.12F
TRI COUNTY     LGT RAIN  59  58  96 NE6       30.19S FOG
PANAMA CITY    CLOUDY    61  57  87 NE7       30.15F
TYNDALL AFB    DRIZZLE   62  59  90 NE7       30.13F
APALACHICOLA   HVY RAIN  64  60  87 E15       30.14F FOG

STATION/POSITION SKY/WX   TEMP    WIND        PRES    WAVE   SWELL
                          AIR SEA DIR/SP/G            HT/PER HT/PER
                          (F)     (DEG/KT/KT) (MB)    (FT/S) (FT/S)
30.1N   87.6W              67 67   90/ 19/ 23 1018.1F   6/ 7   2/15
29.2N   88.2W              69 73   90/ 25/ 29 1017.8F   6/ 7
28.7N   86.0W              70 76   80/ 23/ 29 1017.3F   7/ 7
PANAMA CITY BEAC           60 64   50/  8/ 12 1020.5F
CAPE SAN BLAS    NOT AVBL
TOWER C                    63      40/ 19/ 20 1019.9F
28.5N   84.5W              69 71  100/ 19/ 23 1018.0F   6/ 6

$$
FLZ011-016>038-118-127-128-134-139-239-222200-
NORTH FLORIDA

CITY           SKY/WX    TMP DP  RH WIND       PRES   REMARKS
MARIANNA       LGT RAIN  60  60 100 NE6       30.18F FOG
TALLAHASSEE    CLOUDY    63  58  83 E9        30.19S
PERRY          RAIN      63  62  97 NE7       30.17F
CROSS CITY       N/A     66  64  93 E7        30.16F
LAKE CITY      LGT RAIN  64  61  88 NE3       30.20S
GAINESVILLE    CLOUDY    66  63  90 E9        30.19S
MAYPORT NAS    CLOUDY    69  61  75 E13       30.23F
JACKSONVILLE   CLOUDY    69  61  75 E12       30.22F
JAX NAS        CLOUDY    73  59  61 E17G24    30.21F
JAX CRAIG      CLOUDY    70  60  70 E15       30.22F
JAX CECIL      CLOUDY    70  59  68 E15       30.21F
FERNANDINA BEA CLOUDY    72  63  73 E13       30.23F
ST AUGUSTINE   CLOUDY    70  62  76 E18       30.21F HAZE

STATION/POSITION SKY/WX   TEMP    WIND        PRES    WAVE   SWELL
                          AIR SEA DIR/SP/G            HT/PER HT/PER
                          (F)     (DEG/KT/KT) (MB)    (FT/S) (FT/S)
SHELL POINT                62      60/  5/ 10   N/A
KEATON BEACH               62      50/  9/ 12 1020.9F
CEDAR KEY                  62      90/ 12/ 13 1021.2F
FERNANDINA                 67 58   60/  8/ 12 1023.5F
30.7N   81.3W                 62                N/A     7/ 7
MAYPORT                    69 62   90/  9/ 15   N/A
31.4N   80.9W              66 64   70/ 17/ 19 1025.3F   6/ 8   2/ 8
ST AUGUSTINE               68     100/ 18/ 20 1023.4F

$$
FLZ040-043>046-052-053-057-058-063-144-222200-
INTERIOR CENTRAL FLORIDA

CITY           SKY/WX    TMP DP  RH WIND       PRES   REMARKS
OCALA          LGT RAIN  66  63  88 E7        30.17F FOG
THE VILLAGES     N/A     66  66 100 E10       30.07F FOG
LEESBURG       CLOUDY    67  65  93 E10       30.17F
SANFORD        LGT RAIN  68  65  90 E9        30.18S FOG
ORLANDO EXEC   CLOUDY    69  68  96 E14       30.16F FOG
ORLANDO INTL   LGT RAIN  69  69 100 E12       30.16S FOG
KISSIMMEE      CLOUDY    70  70 100 E9        30.16F FOG
WINTER HAVEN   CLOUDY    71  66  84 E16G22    30.15F
LAKELAND       CLOUDY    72  66  83 MISG      30.13S
BARTOW         CLOUDY    72  66  83 E17G23    30.14F
OKEECHOBEE     CLOUDY    75  66  73 E8G18     30.12F

$$
FLZ041-047-054-059-064-141-147-222200-
EAST CENTRAL FLORIDA

CITY           SKY/WX    TMP DP  RH WIND       PRES   REMARKS
ORMOND BEACH   LGT RAIN  68  63  83 E13G22    30.18F FOG
DAYTONA BEACH  PTSUNNY   71  64  78 E15G24    30.19F
DELAND         CLOUDY    68  64  88 E12G18    30.20S
NEW SMYRNA BEA PTSUNNY   72  64  78 E16G28    30.19F
JFK SPACE CTR  CLOUDY    72  64  78 E15G22    30.23F
CAPE CANAVERAL CLOUDY    73  64  73 E14G25    30.26S
PATRICK AFB    LGT RAIN  71  68  89 E18G26    30.15F
MELBOURNE      CLOUDY    72  68  87 E16G25    30.14F FOG
VERO BEACH     CLOUDY    72  67  84 E17G25    30.14F
FT PIERCE      CLOUDY    76  67  73 E20G28    30.12F
STUART         PTSUNNY   75  66  73 E21G29    30.14F

STATION/POSITION SKY/WX   TEMP    WIND        PRES    WAVE   SWELL
                          AIR SEA DIR/SP/G            HT/PER HT/PER
                          (F)     (DEG/KT/KT) (MB)    (FT/S) (FT/S)
28.5N   80.2W              73 76   90/ 25/ 29 1021.5F
28.9N   78.5W              73 78   80/ 21/ 27 1023.8F   9/ 9   5/ 9
TRIDENT PIER               71 68   80/ 11/ 20 1020.9F
28.4N   80.5W                 68                N/A     6/ 8   2/11
27.6N   80.2W                 71                N/A     8/ 7   2/11

$$
FLZ050-056-061-142-242-148-248-149-249-151-251-155-255-
160-260-222200-
WEST CENTRAL FLORIDA

CITY           SKY/WX    TMP DP  RH WIND       PRES   REMARKS
INVERNESS      CLOUDY    68  64  88 E9        30.16S FOG
BROOKSVILLE    CLOUDY    70  66  87 E13       30.14S
ZEPHYRHILLS    CLOUDY    72  64  78 E15G21    30.13F
CLEARWATER     CLOUDY    73  66  78 E12       30.09F
TAMPA INTL     CLOUDY    74  65  73 E13G21    30.11F
TAMPA EXEC     CLOUDY    75  66  73 E13G23    30.11F
PLANT CITY     CLOUDY    73  68  83 E14G26    30.13F
MACDILL AFB    MOSUNNY   74  70  86 E14G24    30.09F
PETER O KNIGHT CLOUDY    75  68  78 E16G22    30.10F
ST PETERSBURG  CLOUDY    68  64  87 E12       30.08F
SARASOTA       PTSUNNY   78  67  68 E18G30    30.05F
VENICE         CLOUDY    77  66  69 E17G28    30.07S

STATION/POSITION SKY/WX   TEMP    WIND        PRES    WAVE   SWELL
                          AIR SEA DIR/SP/G            HT/PER HT/PER
                          (F)     (DEG/KT/KT) (MB)    (FT/S) (FT/S)
CEDAR KEY                  62      90/ 12/ 13 1021.2F
28.5N   84.5W              69 71  100/ 19/ 23 1018.0F   6/ 6
27.3N   84.3W                 76                N/A     6/ 7
CLEARWATER BEACH           73 62   90/ 13/ 20 1018.4S
MIDDLE TAMPA BAY           72     110/ 19/ 21   N/A
VENICE                     77 66  100/ 14/ 19 1017.7F

$$
FLZ066-069-070-075>078-162-262-165-265-222200-
SOUTHWEST FLORIDA AND KEYS

CITY           SKY/WX    TMP DP  RH WIND       PRES   REMARKS
PUNTA GORDA    CLOUDY    77  67  71 E20G30    30.09F
FT MYERS       CLOUDY    77  69  76 E20G26    30.06F
SOUTHWEST INTL CLOUDY    76  69  79 E16G26    30.07F
NAPLES         PTSUNNY   79  70  74 E13       30.05F
MARCO ISLAND   CLOUDY    75  72  88 E10       30.05F
MARATHON       CLOUDY    78  73  84 E13G23    30.02F
KEY WEST NAS   PTSUNNY   79  72  79 E17       30.01F
KEY WEST INTL  PTSUNNY   79  78  97 E14       30.02F

STATION/POSITION SKY/WX   TEMP    WIND        PRES    WAVE   SWELL
                          AIR SEA DIR/SP/G            HT/PER HT/PER
                          (F)     (DEG/KT/KT) (MB)    (FT/S) (FT/S)
VENICE                     77 66  100/ 14/ 19 1017.7F
NAPLES                     77 73  100/  6/ 15 1018.1F
26.0N   85.6W              78 78  120/ 19/ 23 1014.2F   7/ 8
DRY TORTUGAS               76      90/ 19/ 20 1015.8F
NW FL BAY                  75     120/ 10/ 12 1018.0F
SAND KEY                   78     100/ 19/ 23 1016.0F
SOMBRERO KEY               78     100/ 23/ 25 1017.1S
LONG KEY                   77 74  110/ 16/ 18 1018.2F
MOLASSES REEF              77 78  100/ 26/ 30 1017.1F

$$
FLZ067-068-071>074-168-172>174-222200-
SOUTHEAST FLORIDA

CITY           SKY/WX    TMP DP  RH WIND       PRES   REMARKS
W PALM BEACH   CLOUDY    79  68  69 E22       30.11F
FT LAUDER-EXEC CLOUDY    78  68  71 E23G31    30.09F
FT LAUDERDALE  CLOUDY    79  69  71 E22G30    30.08F
POMPANO BEACH  PTSUNNY   79  69  71 E21G30    30.09F
PEMBROKE PINES CLOUDY    78  69  73 E21G28    30.10S
OPA LOCKA      CLOUDY    78  69  73 E21G26    30.09S
MIAMI          CLOUDY    79  69  71 E18G26    30.08F
WEST KENDALL   CLOUDY    77  70  79 E17G28    30.07F
HOMESTEAD      MOSUNNY   77  70  78 E18G24    30.06F

STATION/POSITION SKY/WX   TEMP    WIND        PRES    WAVE   SWELL
                          AIR SEA DIR/SP/G            HT/PER HT/PER
                          (F)     (DEG/KT/KT) (MB)    (FT/S) (FT/S)
PORT EVERGLADES            78      80/ 16/ 21 1018.6
VIRGINIA KEY               77 75   90/ 18/ 24 1018.8F
LAKE WORTH                 77 78   80/ 21/ 25 1019.4F
SETTLEMENT POINT           73      70/ 23/ 24 1021.1R

$$





U.S. Dept. of Commerce
NOAA National Weather Service
1325 East West Highway
Silver Spring, MD 20910
E-mail: w-nws.webmaster@noaa.gov
Page last modified: May 16, 2007
NATIONAL WEATHER SERVICE: for Safety, for Work, for Fun - FOR LIFE